Regional Weather Roundup
Issued by NWS Wakefield, VA

Home | Current Version | Previous Version | Graphics & Text | Print | Product List | Glossary On
Versions: 1 2 3 4 5 6 7 8 9 10 11 12 13 14 15 16 17 18 19 20 21 22 23 24 25 26 27 28 29 30 31 32 33 34 35 36 37 38 39 40 41 42 43 44 45 46 47 48 49 50
539
ASUS41 KAKQ 052315
RWRAKQ

REGIONAL WEATHER ROUNDUP
NATIONAL WEATHER SERVICE WAKEFIELD VA
600 PM EST FRI FEB 05 2016

Note: "fair" indicates few or no clouds below 12,000 feet with no
significant weather and/or obstructions to visibility. * = Denotes
station may not report precipitation (e.g., rain,snow,etc.),
thunder or fog.

VAZ042-051-052>054-056-060000-
NORTHERN VIRGINIA

CITY           SKY/WX    TMP DP  RH WIND       PRES   REMARKS
WASH NATIONAL  FAIR      40  18  41 NW17G23   30.36R
DULLES         FAIR      36  16  44 NW9       30.36R
FORT BELVOIR   FAIR      39  16  39 NW10      30.35R
QUANTICO       FAIR      40  17  39 N8        30.37R
FREDERICKSBRG* FAIR      39  17  39 N6        30.35R
STAFFORD*      FAIR      36  16  45 NW8       30.40R
WARRENTON      FAIR      37  20  50 NW8       30.35R
CULPEPER*      FAIR      37  15  39 N6        30.36S
MANASSAS*      CLEAR     37  18  44 NW15      30.35R
LEESBURG*      FAIR      37  21  52 N6        30.36S
WINCHESTER     FAIR      34  19  55 NW6       30.35R
FRONT ROYAL*   FAIR      34  16  47 CALM      30.34R
LURAY*         FAIR      36  14  41 NW8       30.34R
$$

VAZ048-049-060>072-079>083-060000-
CENTRAL AND SOUTH CENTRAL VIRGINIA

CITY           SKY/WX    TMP DP  RH WIND       PRES   REMARKS
RICHMOND       FAIR      39  20  46 NW13      30.34R
CHESTERFIELD*  FAIR      39  12  33 NW8       30.36R
PETERSBURG*    FAIR      40  17  39 N3        30.36R
HANOVER        FAIR      40  17  39 NW3       30.36R
TAPPAHANNOCK*  FAIR      40  18  40 NW5       30.35R
QUINTON*       FAIR      40  20  45 NW7       30.34R
CHARLOTTSVILLE FAIR      39  11  31 CALM      30.34R
GORDONSVILLE*  FAIR      39  13  34 N3        30.34R
ORANGE*        FAIR      37  14  38 CALM      30.37R
LOUISA*        FAIR      39  16  38 N3        30.34R
BUMPASS*       FAIR      38  17  41 NW3       30.34R
FARMVILLE*     FAIR      40  13  34 CALM      30.33S
CREWE*         FAIR      39  16  39 NW5       30.34R
FORT PICKETT*  FAIR      39  17  41 N7        30.34R
CHASE CITY*    FAIR      40  17  38 CALM      30.33R
CLARKSVILLE*   FAIR      41  18  38 CALM      30.33S
SOUTH HILL*    FAIR      38  22  52 N5        30.39R
LAWRENCEVILLE* FAIR      38  26  61 CALM      30.33R
EMPORIA*       FAIR      37  27  65 W3        30.36R
$$

VAZ088>098-060000-
SOUTHEAST VIRGINIA

CITY           SKY/WX    TMP DP  RH WIND       PRES   REMARKS
NORFOLK        FAIR      42  26  53 NW6       30.33R
VIRGINIA BEACH FAIR      42  27  55 N7        30.32R
NORFOLK NAVAL  FAIR      42  25  50 NW14      30.35R
WEST POINT*    FAIR      40  19  42 NW5       30.36R
SALUDA*        FAIR      39  25  56 NW8       30.34R
NEWPORT NEWS   FAIR      40  25  55 N6        30.34R
LANGLEY AFB    FAIR      41  24  51 NW7       30.33R
FORT EUSTIS    FAIR      42  20  40 NW9       30.32R
WILLIAMSBURG*  FAIR      43  28  56 N5        30.35R
HR EXEC AP*    FAIR      41  25  52 CALM      30.36R
FRANKLIN*      FAIR      41  26  54 NW3       30.35R
US460-WAKEFLD  FAIR      41  25  53 CALM      30.34R
$$

VAZ020-022-025-037-045-060000-
WEST CENTRAL AND SOUTHWEST VIRGINIA

CITY           SKY/WX    TMP DP  RH WIND       PRES   REMARKS
STAUNTON*      FAIR      39  14  35 N5        30.35R
WAYNESBORO*    FAIR      35  10  35 N5        30.31R
HOT SPRINGS VA FAIR      28   8  44 CALM      30.22R
LYNCHBURG      FAIR      39  10  30 NW3       30.34R
DANVILLE       FAIR      41  16  36 N5        30.35R
SOUTH BOSTON*  FAIR      41  12  30 CALM      30.34R
MARTINSVILLE   FAIR      36  12  37 NW7       30.36R
ROANOKE        FAIR      37  12  35 NW9       30.36R
BLACKSBURG     FAIR      34  15  47 W5        30.35R
DUBLIN*        FAIR      35  10  36 N3        30.34R
MARION*        FAIR      34  10  37 W7        30.34R
HILLSVILLE*    FAIR      32  11  41 NW10      30.27F WCI  24
RICHLANDS*     FAIR      32   9  37 NW3       30.32R
WISE*          FAIR      34   3  27 CALM      30.34R
ABINGDON*      FAIR      38   5  25 N5        30.34R
$$

MDZ021>025-VAZ099-100-060000-
SOUTHERN MARYLAND AND THE DELMARVA PENINSULA

CITY           SKY/WX    TMP DP  RH WIND       PRES   REMARKS
PATUXENT RIVER CLEAR     39  21  48 NW13      30.34R
BAY BRIDGE APT   N/A     37  21  52 NW14      30.34R
LEONARDTOWN    CLEAR     37  19  48 W3        30.36R
DOVER          CLEAR     38  26  62 NW12      30.30R
GEORGETOWN     PTCLDY    39  23  52 NW6       30.31R
EASTON         NOT AVBL
CAMBRIDGE      CLEAR     37  23  56 W5        30.33R
SALISBURY      CLEAR     38  24  57 NW9       30.31R
OCEAN CITY     CLEAR     38  24  57 NW12G17   30.29R
WALLOPS ISLAND FAIR      38  24  57 NW8       30.31R
ACCOMACK*      FAIR      37  25  60 NW10      30.32R
$$

NCZ012>017-030>032-060000-
NORTH CENTRAL AND EASTERN NORTH CAROLINA

CITY           SKY/WX    TMP DP  RH WIND       PRES   REMARKS
ROANOKE RAPIDS FAIR      41  23  48 N6        30.34R
RALEIGH        PTCLDY    43  18  36 CALM      30.36R
ELIZABETH CITY CLEAR     41  28  60 N9        30.34R
AHOSKIE*       CLEAR     40  26  57 CALM      30.35R
EDENTON*       CLEAR     42  32  70 CALM      30.35R
CURRITUCK*     PTCLDY    42  31  65 NW3       30.33R
KILL DEVIL HLS CLEAR     40  29  65 N8        30.32R
MANTEO         CLEAR     40  31  70 NE15      30.33R
CAPE HATTERAS  CLEAR     42  28  57 N9G22     30.32R
TARBORO*       FAIR      43  25  49 CALM      30.36R
GOLDSBORO      CLEAR     45  21  39 N5        30.33R
WASHINGTON     CLEAR     41  28  58 CALM      30.34R
GREENVILLE     CLEAR     41  28  60 N3        30.34R HAZE
NEW BERN       CLEAR     43  28  55 N6        30.35R
WILMINGTON     CLEAR     45  28  51 N7        30.34R
$$

VAZ048-060000-
ELSEWHERE

CITY           SKY/WX    TMP DP  RH WIND       PRES   REMARKS
HARRISBURG PA  PTCLDY    37  21  52 W14       30.32R
BALTIMORE      PTCLDY    37  19  48 NW10G18   30.34R
ANNAPOLIS      CLEAR     40  21  46 NW13      30.34R
ANDREWS AFB    FAIR      37  19  47 NW12      30.34R
PHILADELPHIA   CLEAR     41  15  35 NW13      30.29R
HENDERSON NC   CLEAR     40  13  32 CALM      30.34R
GREENSBORO     MOCLDY    42  10  27 N6        30.33R
ROCKY MOUNT    CLEAR     42  22  44 N6        30.34R
$$

VAZ100-060000-
MARINE

STATION/POSITION TIME  TEMP    WIND        PRES    WAVE   SWELL
                       AIR SEA DIR/SP/G            HT/PER HT/PER
                 (UTC) (F)     (DEG/KT/KT) (MB)    (FT/S) (FT/S)
BRANDYWINE LGT   2200   39     340/ 13/ 18 1024.7R
CAPE MAY NJ      2200   40 43  310/ 18/ 21 1024.5R
LEWES DE         2200   41 43  310/ 16/ 19 1024.9R
15NM E FENWICK I 2250   41 45              1024.8R   7/ 8
OCEAN-CITY-INLET 2200   41 42  330/ 10/ 15 1024.3R
WACHAPREAGUE VA  2200   41 47  280/  2/  7 1025.4R
THOMAS POINT MD  2200   41 40  320/ 15/ 19 1026.7R
GOOSES REEF MD   2300   41 40  330/ 14/ 17 1028.2R   2/ 3
COVE POINT MD    2200   40     340/ 15/ 19 1026.7R
SOLOMONS ISLAND  2200   41 42  320/ 10/ 14   N/A
BISHOPS HEAD MD  2200   41 42  310/ 13/ 16 1025.0R
POTOMAC MD       2300   41 41  320/ 16/ 19 1026.8R   2/ 3
CAMBRIDGE MD     2200   41 41  310/ 12/ 14 1025.2R
LEWISETTA VA     2200   42 45  340/ 15/ 19 1026.2R
RAPPAHANNOCK LGT 2200          330/ 19/ 21 1025.9R
STINGRAY PT      2300   41 43  350/ 12/ 14 1027.5R   2/ 3
YORK RVR RNG VA  2200   43     340/ 17/ 19 1025.1R
YORKTOWN VA      2200   43 45  320/ 15/ 17 1025.7R
JAMESTOWN VA     2300   42 44  330/  8/ 14   N/A
DOMINION TERM VA 2200   44     340/ 12/ 15 1026.0R
KIPTOPEKE VA     2200      44  360/ 12/ 17   N/A
CHES BAY BRIDGE  2200   42 43  320/ 12/ 15 1025.6R
CAPE HENRY VA    2200   42     340/ 16/ 19   N/A
CHESAPEAKE LGHT  2200   41     340/ 22/ 23 1026.1R
WILLOUBY STN VA  2200   43     330/ 15/ 19 1027.0R
1ST LANDING BUOY 2300      43                N/A     2/ 4
64NM E OF VA BCH 2250   44 54  340/ 19/ 25 1025.2R  10/10   7/10
DUCK PIER NC     2200   42 45   10/ 16/ 20 1025.2R
44056 DUCK FRF   2211      45                N/A     7/ 9   2/11
OREGON INLET NC  2200   41 48  340/ 12/ 16 1026.3R
HATTERAS NC      2200   44 54  350/ 18/ 22 1025.4R
DIAMOND SHLS NC  2250      70   10/ 21/ 27 1025.7R   7/10   5/10
$$




USA.gov is the U.S. government's official web portal to all federal, state and local government web resources and services.